Regional Weather Roundup
Issued by NWS Cleveland, OH

Home | Current Version | Previous Version | Graphics & Text | Print | Product List | Glossary On
Versions: 1 2 3 4 5 6 7 8 9 10 11 12 13 14 15 16 17 18 19 20 21 22 23 24 25 26 27 28 29 30 31 32 33 34 35 36 37 38 39 40 41 42 43 44 45 46 47 48 49 50
288
ASUS41 KCLE 302110
RWRCLE
OHIO REGIONAL WEATHER ROUNDUP
NATIONAL WEATHER SERVICE CLEVELAND, OH
500 PM EDT THU MAR 30 2017

NOTE: "FAIR" INDICATES FEW OR NO CLOUDS BELOW 12,000 FEET WITH NO
SIGNIFICANT WEATHER AND/OR OBSTRUCTIONS TO VISIBILITY.

OHZ001>008-015>018-024>027-034-035-043-044-302200-
   NORTHWEST OHIO

CITY           SKY/WX    TMP DP  RH WIND       PRES   REMARKS
DEFIANCE       CLOUDY    44  42  93 E14       29.68F
FINDLAY        CLOUDY    50  45  83 NE12      29.70F
TOLEDO EXPRESS LGT RAIN  39  39 100 E14       29.73F
TOLEDO EXEC    LGT RAIN  41  40  96 E14G23    29.76F FOG
LIMA           CLOUDY    53  50  89 NE15      29.66F
$$

OHZ009>014-019>023-028>033-038-089-302200-
   NORTHEAST OHIO

CITY           SKY/WX    TMP DP  RH WIND       PRES   REMARKS
CLE-HOPKINS    CLOUDY    50  39  66 E9        29.80F
CLE-LAKEFRONT  RAIN      48  38  68 SE13G22   29.77F
CUY CO. ARPT   LGT RAIN  46  41  81 SE16G29   29.78F
LORAIN-ELYRIA  CLOUDY    50  40  68 E9        29.77R
ASHTABULA      CLOUDY    43  37  79 SE15      29.85S
AKRON-CANTON   CLOUDY    54  42  64 E16       29.76F
WOOSTER        CLOUDY    56  45  66 SE17      29.75S
MANSFIELD      CLOUDY    60  48  64 E10       29.71S
YOUNGSTOWN     CLOUDY    49  38  65 E21G26    29.80F
$$

OHZ042-051>053-060>062-070>072-077>081-302200-
  SOUTHWEST OHIO

CITY           SKY/WX    TMP DP  RH WIND       PRES   REMARKS
CINC-COVINGTON CLOUDY    76  50  40 S14G26    29.61F
CINC-LUNKEN    CLOUDY    76  56  49 S13       29.60F
HAMILTON       CLOUDY    78  51  38 S10G24    29.60F
DAYTON         CLOUDY    75  49  39 S16G24    29.61F
WRIGHT-PAT AFB CLOUDY    76  49  38 S22G29    29.60F
DAYTON GENERAL CLOUDY    75  51  43 S16G23    29.61F
WILMINGTON     CLOUDY    74  54  49 S14       29.63F
$$

OHZ036-037-039>041-045>050-054>059-063>069-073>076-082>088-302200-
  CENTRAL AND SOUTHEAST OHIO

CITY           SKY/WX    TMP DP  RH WIND       PRES   REMARKS
COLUMBUS       CLOUDY    76  55  48 S13       29.65F
OSU AIRPORT    CLOUDY    74  55  51 S15       29.64F
BOLTON FIELD   SUNNY     75  55  50 S16G23    29.65F
RICKENBACK AFB CLOUDY    75  56  50 S12       29.64F
NEWARK         PTSUNNY   74  53  48 E7        29.67F
MARION         CLOUDY    66  52  60 E12       29.68F
LANCASTER      CLOUDY    79  54  41 S10       29.66F
ZANESVILLE     MOSUNNY   71  54  54 E10       29.70F
NEW PHILLY     NOT AVBL
$$




USA.gov is the U.S. government's official web portal to all federal, state and local government web resources and services.